Location: Palmerston North
(40.3500°S, 175.6170°E)
Time: 10:17:30
(UTC+13:00)

BREEZE-M DEB (TANK) - Pass Details

Date: 24 January 2019
Orbit: 292 x 16784 km, 49.4° (Epoch: 14 February)

Event Time Altitude Azimuth Distance (km) Brightness Sun altitude
Rises 21:24:50 0° 306° (NW) 11,545 9.8 -7.7°
Reaches altitude 10° 21:36:49 10° 303° (WNW) 7,693 8.9 -9.6°
Maximum altitude 21:53:56 83° 214° (SW) 1,172 4.5 -12.2°
Drops below altitude 10° 21:58:02 10° 124° (SE) 2,024 5.5 -12.8°
Sets 21:59:22 0° 123° (ESE) 2,624 6.1 -13.0°
